• In Portugal
  • List of Countries
  • For 7 days
  • Water Temperature
  • Satellite Maps
  • Weather Map
  • Weather Widgets
  • user-avatar
    Login

    Hourly Weather Herāt

    Today, 22 January, Monday

    Time Temperature Precipitation Wind Pressure Humidity
    00:00 +5°C° 0.1 mm 5 mps 678 mmHg 60%
    01:00 +5°C° 0.1 mm 5 mps 678 mmHg 62%
    02:00 +3°C° 0 mm 5 mps 678 mmHg 62%
    03:00 +3°C° 0 mm 5 mps 678 mmHg 63%
    04:00 +2°C° 0 mm 5 mps 678 mmHg 64%
    05:00 +2°C° 0 mm 5 mps 679 mmHg 64%
    06:00 +3°C° 0 mm 4 mps 679 mmHg 64%
    07:00 +1°C° 0 mm 4 mps 679 mmHg 65%
    08:00 +4°C° 0 mm 4 mps 679 mmHg 55%
    09:00 +5°C° 0 mm 4 mps 680 mmHg 46%
    10:00 +7°C° 0 mm 4 mps 680 mmHg 37%
    11:00 +8°C° 0 mm 4 mps 680 mmHg 33%
    12:00 +10°C° 0 mm 4 mps 680 mmHg 29%
    13:00 +12°C° 0 mm 4 mps 679 mmHg 25%
    14:00 +11°C° 0 mm 4 mps 679 mmHg 25%
    15:00 +11°C° 0 mm 4 mps 679 mmHg 25%
    16:00 +11°C° 0 mm 4 mps 679 mmHg 25%
    17:00 +10°C° 0 mm 4 mps 679 mmHg 30%
    18:00 +8°C° 0 mm 3 mps 679 mmHg 34%
    19:00 +7°C° 0 mm 2 mps 679 mmHg 38%
    20:00 +7°C° 0 mm 2 mps 679 mmHg 39%
    21:00 +7°C° 0 mm 1 mps 679 mmHg 40%
    22:00 +7°C° 0 mm 1 mps 679 mmHg 41%
    23:00 +6°C° 0 mm 1 mps 678 mmHg 41%

    Tomorrow, 23 January, Tuesday

    Time Temperature Precipitation Wind Pressure Humidity
    00:00 +6°C° 0 mm 1 mps 678 mmHg 42%
    01:00 +4°C° 0 mm 0 mps 678 mmHg 42%
    02:00 +5°C° 0 mm 1 mps 677 mmHg 41%
    03:00 +5°C° 0 mm 1 mps 677 mmHg 41%
    04:00 +5°C° 0 mm 1 mps 676 mmHg 41%
    05:00 +5°C° 0 mm 1 mps 676 mmHg 39%
    06:00 +5°C° 0 mm 1 mps 676 mmHg 38%
    07:00 +4°C° 0 mm 2 mps 677 mmHg 37%
    08:00 +7°C° 0 mm 2 mps 677 mmHg 31%
    09:00 +10°C° 0 mm 3 mps 677 mmHg 25%
    10:00 +12°C° 0 mm 3 mps 678 mmHg 18%
    11:00 +13°C° 0 mm 4 mps 678 mmHg 17%
    12:00 +15°C° 0 mm 4 mps 677 mmHg 15%
    13:00 +16°C° 0 mm 5 mps 677 mmHg 14%
    14:00 +16°C° 0 mm 5 mps 677 mmHg 15%
    15:00 +17°C° 0 mm 4 mps 676 mmHg 15%
    16:00 +17°C° 0 mm 4 mps 676 mmHg 16%
    17:00 +14°C° 0 mm 4 mps 676 mmHg 18%
    18:00 +13°C° 0 mm 3 mps 676 mmHg 20%
    19:00 +11°C° 0 mm 3 mps 676 mmHg 22%
    20:00 +11°C° 0 mm 3 mps 676 mmHg 23%
    21:00 +10°C° 0 mm 3 mps 676 mmHg 24%
    22:00 +10°C° 0 mm 3 mps 676 mmHg 26%
    23:00 +9°C° 0 mm 2 mps 676 mmHg 27%

    Day after tomorrow, 24 January, Wednesday

    Time Temperature Precipitation Wind Pressure Humidity
    00:00 +9°C° 0 mm 2 mps 676 mmHg 28%
    01:00 +8°C° 0 mm 2 mps 676 mmHg 29%
    02:00 +8°C° 0 mm 2 mps 676 mmHg 29%
    03:00 +8°C° 0 mm 2 mps 675 mmHg 29%
    04:00 +7°C° 0 mm 2 mps 675 mmHg 29%
    05:00 +7°C° 0 mm 2 mps 675 mmHg 29%
    06:00 +7°C° 0 mm 2 mps 675 mmHg 29%
    07:00 +7°C° 0 mm 2 mps 676 mmHg 28%
    08:00 +9°C° 0 mm 2 mps 676 mmHg 25%
    09:00 +11°C° 0 mm 3 mps 677 mmHg 21%
    10:00 +14°C° 0 mm 3 mps 678 mmHg 17%
    11:00 +14°C° 0 mm 3 mps 678 mmHg 17%
    12:00 +16°C° 0 mm 3 mps 677 mmHg 16%
    13:00 +17°C° 0 mm 4 mps 677 mmHg 16%
    14:00 +17°C° 0 mm 3 mps 677 mmHg 16%
    15:00 +17°C° 0 mm 3 mps 677 mmHg 17%
    16:00 +17°C° 0 mm 3 mps 677 mmHg 17%
    17:00 +15°C° 0 mm 2 mps 677 mmHg 20%
    18:00 +14°C° 0 mm 2 mps 677 mmHg 23%
    19:00 +12°C° 0 mm 1 mps 677 mmHg 26%
    20:00 +11°C° 0 mm 1 mps 677 mmHg 27%
    21:00 +11°C° 0 mm 1 mps 678 mmHg 27%
    22:00 +10°C° 0 mm 1 mps 678 mmHg 28%
    23:00 +10°C° 0 mm 1 mps 678 mmHg 29%

    25 January, Thursday

    Time Temperature Precipitation Wind Pressure Humidity
    00:00 +10°C° 0 mm 1 mps 678 mmHg 30%
    01:00 +9°C° 0 mm 1 mps 678 mmHg 31%
    02:00 +9°C° 0 mm 1 mps 678 mmHg 32%
    03:00 +7°C° 0 mm 2 mps 678 mmHg 32%
    04:00 +7°C° 0 mm 2 mps 678 mmHg 33%
    05:00 +7°C° 0 mm 2 mps 679 mmHg 34%
    06:00 +7°C° 0 mm 2 mps 679 mmHg 35%
    07:00 +5°C° 0 mm 3 mps 680 mmHg 35%
    08:00 +8°C° 0 mm 3 mps 681 mmHg 32%
    09:00 +10°C° 0 mm 3 mps 681 mmHg 28%
    10:00 +12°C° 0 mm 3 mps 682 mmHg 25%
    11:00 +13°C° 0 mm 4 mps 682 mmHg 23%
    12:00 +13°C° 0 mm 4 mps 681 mmHg 22%
    13:00 +14°C° 0 mm 4 mps 681 mmHg 21%
    14:00 +14°C° 0 mm 4 mps 681 mmHg 21%
    15:00 +14°C° 0 mm 5 mps 681 mmHg 22%
    16:00 +13°C° 0 mm 5 mps 681 mmHg 23%
    17:00 +12°C° 0 mm 5 mps 681 mmHg 26%
    18:00 +11°C° 0 mm 4 mps 681 mmHg 30%
    19:00 +8°C° 0 mm 4 mps 681 mmHg 33%
    20:00 +8°C° 0 mm 4 mps 681 mmHg 35%
    21:00 +8°C° 0 mm 3 mps 681 mmHg 37%
    22:00 +7°C° 0 mm 3 mps 681 mmHg 38%
    23:00 +7°C° 0 mm 3 mps 681 mmHg 39%

    26 January, Friday

    Time Temperature Precipitation Wind Pressure Humidity
    00:00 +7°C° 0 mm 3 mps 681 mmHg 40%
    01:00 +5°C° 0 mm 3 mps 681 mmHg 41%
    02:00 +5°C° 0 mm 3 mps 681 mmHg 41%
    03:00 +5°C° 0 mm 3 mps 681 mmHg 42%
    04:00 +4°C° 0 mm 3 mps 681 mmHg 42%
    05:00 +4°C° 0 mm 3 mps 681 mmHg 42%
    06:00 +4°C° 0 mm 3 mps 681 mmHg 42%
    07:00 +4°C° 0 mm 3 mps 681 mmHg 42%
    08:00 +7°C° 0 mm 3 mps 681 mmHg 37%
    09:00 +9°C° 0 mm 2 mps 682 mmHg 31%
    10:00 +12°C° 0 mm 2 mps 682 mmHg 26%
    11:00 +13°C° 0 mm 2 mps 682 mmHg 23%
    12:00 +14°C° 0 mm 2 mps 681 mmHg 21%
    13:00 +15°C° 0 mm 2 mps 681 mmHg 18%
    14:00 +14°C° 0 mm 3 mps 680 mmHg 19%
    15:00 +14°C° 0 mm 3 mps 680 mmHg 19%
    16:00 +14°C° 0 mm 3 mps 680 mmHg 20%
    17:00 +12°C° 0 mm 3 mps 680 mmHg 24%
    18:00 +12°C° 0 mm 2 mps 680 mmHg 28%
    19:00 +9°C° 0 mm 2 mps 680 mmHg 32%
    20:00 +9°C° 0 mm 2 mps 679 mmHg 32%
    21:00 +8°C° 0 mm 2 mps 679 mmHg 33%
    22:00 +8°C° 0 mm 2 mps 679 mmHg 34%
    23:00 +7°C° 0 mm 2 mps 679 mmHg 33%

    27 January, Saturday

    Time Temperature Precipitation Wind Pressure Humidity
    00:00 +7°C° 0 mm 2 mps 678 mmHg 33%
    01:00 +7°C° 0 mm 2 mps 678 mmHg 32%
    02:00 +7°C° 0 mm 1 mps 678 mmHg 32%
    03:00 +7°C° 0 mm 1 mps 677 mmHg 31%
    04:00 +7°C° 0 mm 1 mps 677 mmHg 31%
    05:00 +7°C° 0 mm 1 mps 677 mmHg 30%
    06:00 +7°C° 0 mm 1 mps 677 mmHg 29%
    07:00 +6°C° 0 mm 1 mps 677 mmHg 28%
    08:00 +9°C° 0 mm 1 mps 678 mmHg 24%
    09:00 +11°C° 0 mm 1 mps 678 mmHg 19%
    10:00 +14°C° 0 mm 1 mps 679 mmHg 15%
    11:00 +15°C° 0 mm 1 mps 678 mmHg 14%
    12:00 +16°C° 0 mm 1 mps 678 mmHg 13%
    13:00 +17°C° 0 mm 2 mps 677 mmHg 12%
    14:00 +17°C° 0 mm 2 mps 677 mmHg 13%
    15:00 +17°C° 0 mm 2 mps 677 mmHg 14%
    16:00 +17°C° 0 mm 2 mps 676 mmHg 14%
    17:00 +16°C° 0 mm 2 mps 676 mmHg 18%
    18:00 +14°C° 0 mm 2 mps 676 mmHg 22%
    19:00 +13°C° 0 mm 2 mps 676 mmHg 25%
    20:00 +12°C° 0 mm 2 mps 676 mmHg 27%
    21:00 +10°C° 0 mm 2 mps 676 mmHg 29%
    22:00 +9°C° 0 mm 2 mps 676 mmHg 31%
    23:00 +9°C° 0 mm 2 mps 676 mmHg 31%
    Show more